Find Starlink 5800

NORAD ID: 56041 Int'l Des: 2023-042 Owner: SPXS Country: US Constellation: starlink operational
LEOCIRCULAR

Current View

Loading 3D Globe...

About Starlink 5800

Description loading...

Upcoming Passes

Passes for default location (London). Set your location on the main map for personalized predictions.

Altitude History

Loading altitude history...

Two-Line Element Set

1 56041U 23042BH 26149.43955542 -.00000169 00000-0 33937-5 0 9993
2 56041 43.0011 297.9518 0001842 259.9675 100.0969 15.27576322175510
Epoch: May 29, 2026 • Age: 14 hours

Current Status

Altitude 483.4 km
Velocity 7.63 km/s
Sub-Earth Point -3.61°S, 33.48°E
Launch Date Mar 24, 2023
Age 3.1 years
Type internet

Technical Details

Classification Payload
Mass 305.00 kg
Dry Mass 290.00 kg
Total Mass 305.00 kg
Length 0.20 m
Diameter 2.80 m
Span 9.00 m
Shape Box + pan
Manufacturer SPXS
Bus Type Starlink
Phase Status In Orbit
Owner/State SPXS/US

Most Searched